Tracking 33485 objects as of 15-Mar-2026
HD Live streaming from Space Station
objects crossing your sky now

STARLINK-36702

Track STARLINK-36702 now!
10-day predictions
STARLINK-36702 is classified as:


NORAD ID: 67714
Int'l Code: 2026-025X
Perigee: 350.0 km
Apogee: 352.5 km
Inclination: 97.3 °
Period: 91.4 minutes
Semi major axis: 6722 km
RCS: Unknown
Launch date: February 7, 2026
Source: United States (US)
Launch site: AIR FORCE WESTERN TEST RANGE (AFWTR)
Your satellite tracking list
Your tracking list is empty




NASA's NSSDC Master Catalog

Two Line Element Set (TLE):
1 67714U 26025X   26074.31096449  .00154019  00000-0  10158-2 0  9992
2 67714  97.2849 186.3004 0001879  49.1223 311.0205 15.75170195  6834
Source of the keplerian elements: AFSPC